x

9440910 - Toke Point, Wa (tokw1) Weather Station

8:54 - Sat 30th Aug 2014 All times are PDT. -7 hours from GMT.

  • Wind
    16mph, 18mph gusts
  • Ar Temp 62°f
  • Sea Pressure 1011.5mb
  • 9440910 - Toke Point, Wa
  • 9440910 - Toke Point, Wa

More Historic Weather Station data

Upgrade to MSW Pro to gain access to the past 30 days of data for over 8000 Wavebouys and Weather Stations around the globe.

Join Pro

Comparision Forecast

View Surf forecast
   
Sáb 08/30 8:54 16 18 mph 1011.5mb 62f
8:48 15 21 mph 1011.5mb 62f
8:42 14 17 mph 1011.5mb 62f
8:36 14 20 mph 1011.6mb 62f
8:30 15 17 mph 1011.6mb 62f
8:24 14 22 mph 1011.6mb 62f
8:18 17 22 mph 1011.6mb 62f
8:12 21 24 mph 1011.5mb 62f
8:06 17 21 mph 1011.6mb 62f
8:00 18 22 mph 1011.6mb 62f
7:54 18 25 mph 1011.6mb 62f
7:48 21 23 mph 1011.7mb 61f
7:42 18 22 mph 1011.7mb 61f
7:36 16 22 mph 1011.6mb 61f
7:30 16 21 mph 1011.7mb 61f
7:24 15 20 mph 1011.8mb 61f
7:18 15 18 mph 1011.9mb 61f
7:12 14 16 mph 1011.9mb 60f
7:06 14 17 mph 1011.9mb 60f
7:00 14 16 mph 1011.9mb 60f
6:54 13 15 mph 1012mb 60f
6:48 13 14 mph 1012mb 60f
6:42 14 15 mph 1012mb 61f
6:36 8 10 mph 1011.9mb 61f
6:30 5 8 mph 1012mb 60f
6:24 6 7 mph 1012mb 60f
6:18 6 10 mph 1012mb 61f
6:12 6
mph
1011.9mb 61f
6:06 6
mph
1012mb 60f
6:00 5
mph
1012mb 60f
5:54 5 6 mph 1012.1mb 60f
5:48 5 6 mph 1012.1mb 60f
5:42 6 7 mph 1012.1mb 60f
5:36 6 7 mph 1012.2mb 60f
5:30 7
mph
1012.3mb 60f
5:24 7
mph
1012.4mb 60f
5:18 6 7 mph 1012.3mb 60f
5:12 7
mph
1012.3mb 60f
5:06 7
mph
1012.4mb 60f
5:00 5 6 mph 1012.6mb 60f
4:54 6
mph
1012.7mb 60f
4:48 6
mph
1012.7mb 60f
4:42 7
mph
1012.7mb 60f
4:36 6
mph
1012.8mb 60f
4:30 5 6 mph 1012.8mb 60f
4:24 5 6 mph 1012.9mb 61f
4:18 5 10 mph 1013mb 61f
4:12 8 10 mph 1013mb 61f
4:06 7 9 mph 1013.1mb 60f
4:00 8 10 mph 1013.1mb 61f
3:54 9 11 mph 1013.2mb 61f
3:48 8 11 mph 1013.3mb 61f
3:42 9 13 mph 1013.3mb 61f
3:36 9 11 mph 1013.3mb 61f
3:30 8 10 mph 1013.4mb 61f
3:24 9 10 mph 1013.4mb 61f
3:18 10 11 mph 1013.5mb 61f
3:12 9 11 mph 1013.6mb 61f
3:06 8 11 mph 1013.6mb 61f
3:00 8 10 mph 1013.6mb 61f
2:54 8 10 mph 1013.6mb 61f
2:48 8 9 mph 1013.6mb 61f
2:42 7 8 mph 1013.7mb 61f
2:36 6 10 mph 1013.8mb 61f
2:30 6 9 mph 1013.8mb 61f
2:24 7 9 mph 1013.8mb 61f
2:18 8 9 mph 1013.8mb 61f
2:12 7 8 mph 1013.9mb 62f
2:06 7 9 mph 1014mb 62f
2:00 7 10 mph 1014.1mb 62f
1:54 6 9 mph 1014.1mb 62f
1:48 7 9 mph 1014mb 62f
1:42 7 9 mph 1014mb 62f
1:36 8 9 mph 1014.1mb 62f
1:30 8 10 mph 1014.1mb 62f
1:24 7 10 mph 1014.2mb 62f
1:18 8 9 mph 1014.2mb 62f
1:12 8 9 mph 1014.3mb 62f
1:06 8 9 mph 1014.3mb 62f
1:00 7 9 mph 1014.4mb 62f
12:54 7 9 mph 1014.4mb 62f
12:48 7 9 mph 1014.5mb 62f
12:42 8 9 mph 1014.5mb 62f
12:36 7 9 mph 1014.6mb 62f
12:30 7 8 mph 1014.7mb 62f
12:24 6 8 mph 1014.7mb 62f
12:18 6 9 mph 1014.7mb 62f
12:12 6 7 mph 1014.7mb 62f
12:06 3 5 mph 1014.7mb 62f
12:00 1 3 mph 1014.8mb 61f
Sex 08/29 11:54 1 3 mph 1014.7mb 61f
11:48  -  3 mph 1014.8mb 61f
11:42 2 6 mph 1014.8mb 61f
11:36 3 7 mph 1014.8mb 61f
11:30 6 9 mph 1014.8mb 61f
11:24 5 6 mph 1014.8mb 61f
11:18 6 7 mph 1014.9mb 61f
11:12 5 7 mph 1014.8mb 61f
11:06 5 6 mph 1014.9mb 61f
11:00 6 7 mph 1014.9mb 61f
10:54 6 8 mph 1014.9mb 61f
10:48 3
mph
1014.9mb 61f
10:42 3 5 mph 1014.9mb 61f
10:36 3 6 mph 1015mb 61f
10:30 2 5 mph 1015.1mb 61f
10:24 3 6 mph 1015.2mb 60f
10:18 2 6 mph 1015.2mb 60f
10:12 3 6 mph 1015.2mb 60f
10:06 3 6 mph 1015.3mb 60f
10:00 2 6 mph 1015.3mb 60f
9:54 2 5 mph 1015.3mb 60f
9:48 1 3 mph 1015.3mb 60f
9:42  -  2 mph 1015.3mb 60f
9:36  -  5 mph 1015.4mb 60f
9:30 1 5 mph 1015.5mb 60f
9:24 2 5 mph 1015.5mb 60f
9:18 3 6 mph 1015.4mb 61f
9:12 3 5 mph 1015.4mb 61f
9:06 1 5 mph 1015.4mb 61f
9:00 2 3 mph 1015.4mb 61f
8:54 1 3 mph 1015.3mb 61f
8:48  -  3 mph 1015.3mb 61f
8:42  -  2 mph 1015.2mb 61f
8:36  -  3 mph 1015.2mb 61f
8:30  -  3 mph 1015.2mb 62f
8:24 2 5 mph 1015.1mb 61f
8:18 1 5 mph 1015.2mb 62f
8:12 1 5 mph 1015.2mb 62f
8:06  -  5 mph 1015.2mb 62f
8:00 2 6 mph 1015.1mb 62f
7:54 2 5 mph 1015.1mb 62f
7:48 1 6 mph 1015.1mb 62f
7:42 2 6 mph 1015.1mb 62f
7:36 2 6 mph 1015.1mb 62f
7:30 1 5 mph 1015.2mb 62f
7:24  -  7 mph 1015.2mb 62f
7:18 1 6 mph 1015.2mb 62f
7:12 1 6 mph 1015.3mb 62f
7:06 1 3 mph 1015.3mb 62f
7:00 1 3 mph 1015.4mb 62f
6:54 1 5 mph 1015.4mb 63f
6:48 1 5 mph 1015.5mb 63f
6:42 2 6 mph 1015.5mb 63f
6:36  -  3 mph 1015.5mb 63f
6:30 1 5 mph 1015.5mb 63f
6:24  -  3 mph 1015.6mb 63f
6:18  -  5 mph 1015.6mb 63f
6:12 2 6 mph 1015.6mb 63f
6:06 2 7 mph 1015.6mb 64f
6:00 2 6 mph 1015.7mb 64f
5:54 2 5 mph 1015.7mb 65f
5:48 1 5 mph 1015.7mb 65f
5:42 1 7 mph 1015.6mb 65f
5:36 3 7 mph 1015.7mb 64f
5:30 2 6 mph 1015.7mb 64f
5:24 1 5 mph 1015.8mb 65f
5:18  -  3 mph 1015.8mb 64f
5:12  -  7 mph 1015.9mb 64f
5:06 2 6 mph 1015.9mb 65f
5:00 1 3 mph 1015.9mb 65f
4:54 1 3 mph 1015.9mb 65f
4:48 1 6 mph 1015.9mb 65f
4:42 1 5 mph 1016mb 65f
4:36 2 6 mph 1015.9mb 65f
4:30 2 6 mph 1015.9mb 65f
4:24 2 6 mph 1015.8mb 65f
4:18 1 6 mph 1015.9mb 65f
4:12 2 6 mph 1015.8mb 65f
4:06 1 6 mph 1015.9mb 65f
4:00  -  5 mph 1016mb 66f
3:54 2 6 mph 1016mb 66f
3:48 2 6 mph 1016.1mb 66f
3:42 1 6 mph 1016.1mb 66f
3:36 2 8 mph 1016.1mb 66f
3:30 3 7 mph 1016.2mb 65f
3:24 2 10 mph 1016.1mb 65f
3:18 7 10 mph 1016.1mb 65f
3:12 3 8 mph 1016.1mb 66f
3:06 1 6 mph 1016.2mb 66f
3:00 2 8 mph 1016.2mb 66f
2:54 1 6 mph 1016.2mb 66f
2:48 3 7 mph 1016.3mb 66f
2:42 2 7 mph 1016.4mb 65f
2:36 3 9 mph 1016.5mb 65f
2:30 2 9 mph 1016.5mb 65f
2:24 2 9 mph 1016.6mb 65f
2:18 5 11 mph 1016.6mb 64f
2:12 7 10 mph 1016.5mb 64f
2:06 6 11 mph 1016.6mb 64f
2:00 9 11 mph 1016.5mb 63f
1:54 9 14 mph 1016.4mb 64f
1:48 6 11 mph 1016.4mb 65f
1:42 5 13 mph 1016.4mb 65f
1:36 5 14 mph 1016.4mb 65f
1:30 5 10 mph 1016.3mb 65f
1:24 5 10 mph 1016.2mb 65f
1:18 5 9 mph 1016.3mb 64f
1:12 5 10 mph 1016.3mb 64f
1:06 6 10 mph 1016.3mb 64f
1:00 7 11 mph 1016.3mb 64f
12:54 7 13 mph 1016.3mb 63f
12:48 3 10 mph 1016.4mb 63f
12:42 6 13 mph 1016.4mb 64f
12:36 5 13 mph 1016.3mb 64f
12:30 6 11 mph 1016.4mb 63f
12:24 6 13 mph 1016.4mb 64f
12:18 7 11 mph 1016.4mb 64f
12:12 5 13 mph 1016.4mb 64f
12:06 3 9 mph 1016.5mb 64f
12:00 5 8 mph 1016.4mb 64f
11:54 6 9 mph 1016.3mb 64f
11:48 6 9 mph 1016.3mb 63f
11:42 5 8 mph 1016.3mb 63f
11:36 2 8 mph 1016.3mb 63f
11:30 7 10 mph 1016.3mb 63f
11:24 8 10 mph 1016.3mb 63f
11:18 8 10 mph 1016.3mb 63f
11:12 7 9 mph 1016.2mb 63f
11:06 8 9 mph 1016.2mb 63f
11:00 8 9 mph 1016.2mb 63f
10:54 8 10 mph 1016.2mb 62f
10:48 7 10 mph 1016.2mb 62f
10:42 8 11 mph 1016.1mb 62f
10:36 9 11 mph 1016.1mb 62f
10:30 9 13 mph 1016.2mb 62f
10:24 9 11 mph 1016.2mb 62f
10:18 9 11 mph 1016.2mb 62f
10:12 9 10 mph 1016.2mb 62f
10:06 8 11 mph 1016.2mb 61f
10:00 9 11 mph 1016.2mb 61f
9:54 10 14 mph 1016.1mb 61f
9:48 10 11 mph 1016mb 61f
9:42 7 9 mph 1016.1mb 61f
9:36 2 7 mph 1016mb 61f
9:30  -  3 mph 1016.1mb 61f
9:24 1 6 mph 1016.2mb 61f
9:18  -  3 mph 1016.3mb 60f
9:12 1 5 mph 1016.3mb 60f
9:06 3 6 mph 1016.2mb 60f
9:00 5 6 mph 1016.1mb 60f
8:54 3 6 mph 1016.1mb 60f
8:48 5 6 mph 1016.1mb 60f
8:42 5 6 mph 1015.9mb 59f
8:36 3 5 mph 1016mb 59f
8:30 5 6 mph 1015.9mb 59f
8:24 5 6 mph 1016mb 59f
8:18 6 8 mph 1015.9mb 59f
8:12 6 7 mph 1015.8mb 59f
8:06 6 7 mph 1015.7mb 59f
8:00 2 3 mph 1015.9mb 58f
7:54 2
mph
1015.9mb 58f
7:48 2 5 mph 1015.9mb 58f
7:42 3 5 mph 1015.9mb 58f
7:36 5 6 mph 1015.9mb 58f
7:30 5 6 mph 1015.9mb 58f
7:24 6
mph
1015.9mb 58f
7:18 5 6 mph 1016.1mb 58f
7:12 3 7 mph 1016.1mb 58f
7:06 7 9 mph 1016.1mb 58f
7:00 6 8 mph 1016mb 58f
6:54 5 7 mph 1016mb 58f
6:48 5 6 mph 1016mb 57f
6:42 5 6 mph 1016mb 57f
6:36 5 6 mph 1015.9mb 57f
6:30 6
mph
1015.8mb 57f
6:24 5 6 mph 1015.9mb 57f
6:18 3 5 mph 1015.9mb 57f
6:12 3 5 mph 1015.9mb 57f
6:06 3 5 mph 1015.9mb 57f
6:00 5 6 mph 1016mb 57f
5:54 6
mph
1016.1mb 57f
5:48 5 6 mph 1016.1mb 57f
5:42 5 6 mph 1016.2mb 56f
5:36 6
mph
1016.1mb 56f
5:30 2 5 mph 1016.1mb 56f
5:24 3 5 mph 1016.2mb 56f
5:18 2 3 mph 1016.2mb 56f
5:12 3 5 mph 1016.3mb 56f
5:06 1
mph
1016.3mb 56f
5:00 1 2 mph 1016.2mb 56f
4:54 1
mph
1016.3mb 56f
4:48  -  1 mph 1016.3mb 56f
4:42 1 2 mph 1016.5mb 56f
4:36 1
mph
1016.5mb 55f
4:30  -  2 mph 1016.4mb 55f
4:24 2 3 mph 1016.2mb 55f
4:18 2 3 mph 1016.2mb 55f
4:12 2 3 mph 1016.2mb 55f
4:06 2 3 mph 1016.2mb 56f
4:00 2 3 mph 1016.2mb 56f
3:54  -  3 mph 1016.3mb 56f
3:48  -  5 mph 1016.4mb 56f
3:42  -  2 mph 1016.4mb 56f
3:36 2 3 mph 1016.5mb 56f
3:30 2 3 mph 1016.5mb 56f
3:24  -  3 mph 1016.5mb 56f
3:18  -  2 mph 1016.5mb 56f
3:12  -  3 mph 1016.6mb 56f
3:06  -  3 mph 1016.6mb 56f
3:00 2 5 mph 1016.5mb 56f
2:54  -  2 mph 1016.6mb 57f
2:48 2 3 mph 1016.6mb 56f
2:42  -  3 mph 1016.6mb 56f
2:36 1 2 mph 1016.5mb 56f
2:30  -  2 mph 1016.5mb 56f
2:24  -  3 mph 1016.6mb 56f
2:18 1 5 mph 1016.7mb 56f
2:12 3 6 mph 1016.8mb 56f
2:06 6 7 mph 1016.8mb 56f
2:00 6 7 mph 1016.8mb 57f
1:54 5
mph
1016.8mb 57f
1:48 3 6 mph 1016.9mb 57f
1:42 2 6 mph 1016.9mb 57f
1:36 6 7 mph 1016.9mb 57f
1:30 6
mph
1017mb 57f
1:24 5 6 mph 1016.9mb 58f
1:18 2 3 mph 1016.9mb 58f
1:12 2 3 mph 1017mb 58f
1:06 2 3 mph 1017.1mb 58f
1:00 2 5 mph 1017.1mb 58f
12:54 3 5 mph 1017.1mb 58f
12:48 3 5 mph 1017.1mb 58f
12:42 3 5 mph 1017.1mb 58f
12:36  -  1 mph 1017mb 59f
12:30  -  1 mph 1017mb 58f
12:24  -  1 mph 1017mb 58f
12:18 2 3 mph 1017.1mb 58f
12:12 2 3 mph 1017.1mb 58f
12:06 2 3 mph 1017.1mb 59f
12:00 2 5 mph 1017.2mb 58f
Qui 08/28 11:54 2 5 mph 1017.3mb 59f
11:48 3 5 mph 1017.3mb 58f
11:42 3 5 mph 1017.4mb 58f
11:36 5 6 mph 1017.4mb 58f
11:30 3 5 mph 1017.4mb 59f
11:24 3 6 mph 1017.5mb 59f
11:18 6 7 mph 1017.6mb 59f
11:12 6 7 mph 1017.7mb 59f
11:06 7
mph
1017.7mb 59f
11:00 6 7 mph 1017.8mb 59f
10:54 2 3 mph 1017.8mb 60f
10:48 1 3 mph 1017.9mb 60f
10:42 2 5 mph 1017.9mb 60f
10:36 3 5 mph 1017.9mb 60f
10:30 5 6 mph 1018mb 60f
10:24 3
mph
1018mb 60f
10:18 2
mph
1018mb 60f
10:12 1 2 mph 1018mb 60f
10:06 2
mph
1018.1mb 60f
10:00 2
mph
1018.2mb 61f
9:54 2
mph
1018.2mb 61f
9:48 2 3 mph 1018.2mb 60f
9:42 2 3 mph 1018.4mb 61f
9:36 3
mph
1018.4mb 61f
9:30 2 3 mph 1018.3mb 61f
9:24 2 3 mph 1018.3mb 61f
9:18 2 5 mph 1018.4mb 61f
9:12 3 6 mph 1018.4mb 62f
9:06 5 7 mph 1018.4mb 62f
9:00 6 7 mph 1018.5mb 62f
8:54 3 5 mph 1018.5mb 62f
8:48 6 7 mph 1018.4mb 62f
8:42 6 7 mph 1018.4mb 62f
8:36 7 8 mph 1018.4mb 62f
8:30 6 8 mph 1018.5mb 62f
8:24 8 9 mph 1018.4mb 62f
8:18 7 8 mph 1018.4mb 62f
8:12 8 9 mph 1018.4mb 62f
8:06 7 9 mph 1018.3mb 62f
8:00 7 9 mph 1018.4mb 62f
7:54 5 7 mph 1018.4mb 62f
7:48 6 7 mph 1018.5mb 62f
7:42 7 8 mph 1018.5mb 62f
7:36 3 6 mph 1018.5mb 62f
7:30 5 8 mph 1018.5mb 62f
7:24 6 8 mph 1018.5mb 62f
7:18 6 8 mph 1018.6mb 62f
7:12 6 7 mph 1018.5mb 62f
7:06 7 8 mph 1018.6mb 62f
7:00 5 7 mph 1018.5mb 63f
6:54 6 8 mph 1018.5mb 63f
6:48 6 8 mph 1018.6mb 63f
6:42 6 9 mph 1018.7mb 62f
6:36 7 8 mph 1018.8mb 62f
6:30 6 7 mph 1018.7mb 62f
6:24 7 10 mph 1018.7mb 63f
6:18 7 10 mph 1018.7mb 64f
6:12 7 9 mph 1018.7mb 63f
6:06 7 9 mph 1018.8mb 63f
6:00 6 9 mph 1018.9mb 63f
5:54 6 8 mph 1018.9mb 62f
5:48 7 8 mph 1018.9mb 62f
5:42 6 9 mph 1018.9mb 62f
5:36 7 9 mph 1019mb 62f
5:30 6 10 mph 1019.1mb 62f
5:24 9 11 mph 1019.1mb 62f
5:18 8 11 mph 1019.2mb 62f
5:12 7 10 mph 1019.2mb 62f
5:06 5 9 mph 1019.2mb 62f
5:00 6 10 mph 1019.3mb 62f
4:54 3 7 mph 1019.3mb 63f
4:48 2 6 mph 1019.3mb 63f
4:42  -  3 mph 1019.4mb 64f
4:36  -  3 mph 1019.4mb 64f
4:30  -  2 mph 1019.4mb 64f
4:24 1 3 mph 1019.5mb 64f
4:18 1 3 mph 1019.5mb 64f
4:12  -  6 mph 1019.5mb 63f
4:06  -  5 mph 1019.6mb 63f
4:00 1 5 mph 1019.6mb 63f
3:54 2 6 mph 1019.7mb 62f
3:48 2 7 mph 1019.8mb 62f
3:42 2 7 mph 1019.8mb 62f
3:36 7 10 mph 1019.9mb 61f
3:30 6 10 mph 1020mb 61f
3:24 7 11 mph 1020mb 62f
3:18 6 9 mph 1020mb 62f
3:12 6 9 mph 1020.1mb 62f
3:06 3 8 mph 1020.1mb 63f
3:00 2 7 mph 1020.1mb 63f
2:54 2 9 mph 1020.2mb 63f
2:48 5 10 mph 1020.2mb 63f
2:42 6 9 mph 1020.2mb 63f
2:36 7 10 mph 1020.3mb 62f
2:30 3 9 mph 1020.3mb 63f
2:24 5 9 mph 1020.4mb 64f
2:18 2 7 mph 1020.4mb 64f
2:12 3 8 mph 1020.4mb 64f
2:06 3 9 mph 1020.4mb 64f
2:00 1 8 mph 1020.4mb 64f
1:54 3 6 mph 1020.4mb 64f
1:48 2 6 mph 1020.4mb 65f
1:42 2 6 mph 1020.4mb 64f
1:36 1 6 mph 1020.4mb 64f
1:30 2 6 mph 1020.4mb 65f
1:24 1 6 mph 1020.4mb 64f
1:18 1 5 mph 1020.5mb 64f
1:12 2 6 mph 1020.5mb 64f
1:06 2 9 mph 1020.5mb 64f
1:00 5 8 mph 1020.5mb 63f
12:54 5 8 mph 1020.5mb 64f
12:48 2 7 mph 1020.5mb 64f
12:42 6 8 mph 1020.5mb 63f
12:36 7 9 mph 1020.5mb 63f
12:30 6 9 mph 1020.5mb 63f
12:24 6 9 mph 1020.6mb 62f
12:18 3 7 mph 1020.6mb 63f
12:12 3 9 mph 1020.7mb 62f
12:06 1 6 mph 1020.7mb 63f
12:00 1 9 mph 1020.8mb 62f
11:54 5 9 mph 1020.7mb 62f
11:48 5 9 mph 1020.7mb 62f
11:42 5 9 mph 1020.7mb 62f
11:36 3 9 mph 1020.7mb 63f
11:30 3 8 mph 1020.6mb 63f
11:24 5 9 mph 1020.6mb 63f
11:18 5 9 mph 1020.6mb 63f
11:12 1 7 mph 1020.5mb 64f
11:06 3 9 mph 1020.5mb 63f
11:00 5 9 mph 1020.3mb 63f
10:54 3 11 mph 1020.3mb 63f
10:48 6 10 mph 1020.3mb 63f
10:42 6 9 mph 1020.2mb 62f
10:36 6 10 mph 1020.2mb 62f
10:30 5 10 mph 1020.2mb 62f
10:24 3 10 mph 1020.1mb 62f
10:18 8 10 mph 1020.1mb 62f
10:12 7 11 mph 1020.1mb 62f
10:06 8 10 mph 1020.1mb 62f
10:00 7 10 mph 1020.1mb 61f
9:54 8 11 mph 1020mb 61f
9:48 8 11 mph 1020mb 61f
9:42 7 11 mph 1020mb 61f
9:36 7 10 mph 1020mb 61f
9:30 7 10 mph 1019.9mb 61f
9:24 5 8 mph 1019.9mb 61f
9:18 5 9 mph 1020mb 61f
9:12 5 8 mph 1020mb 60f
9:06 5 8 mph 1019.9mb 61f
9:00 6 9 mph 1019.9mb 60f
8:54 3 7 mph 1019.9mb 60f
8:48 2 8 mph 1020mb 60f
8:42 6 9 mph 1019.9mb 60f
8:36 6 9 mph 1019.9mb 60f
8:30 7 9 mph 1019.9mb 60f
8:24 7 8 mph 1019.9mb 60f
8:18 5 8 mph 1019.9mb 60f
8:12 5 9 mph 1019.8mb 60f
8:06 2 7 mph 1019.9mb 60f
8:00 2 6 mph 1019.8mb 60f
7:54 2 6 mph 1019.7mb 60f
7:48 2 5 mph 1019.7mb 60f
7:42 1 6 mph 1019.7mb 60f
7:36 3 6 mph 1019.7mb 60f
7:30 3 6 mph 1019.7mb 60f
7:24 2 5 mph 1019.7mb 60f
7:18 2 6 mph 1019.7mb 60f
7:12 3 7 mph 1019.7mb 60f
7:06 3 7 mph 1019.6mb 60f
7:00 3 8 mph 1019.6mb 60f
6:54 5 7 mph 1019.6mb 60f
6:48 6 8 mph 1019.6mb 60f
6:42 6 9 mph 1019.5mb 60f
6:36 7 9 mph 1019.5mb 60f
6:30 6 7 mph 1019.5mb 60f
6:24 6 8 mph 1019.5mb 60f
6:18 6 8 mph 1019.5mb 60f
6:12 5 7 mph 1019.5mb 59f
6:06 5 7 mph 1019.5mb 59f
6:00 5 6 mph 1019.5mb 59f
5:54 5 7 mph 1019.5mb 59f
5:48 6 7 mph 1019.5mb 59f
5:42 3 7 mph 1019.5mb 59f
5:36 5 6 mph 1019.5mb 59f
5:30 3 7 mph 1019.6mb 59f
5:24 5 7 mph 1019.6mb 59f
5:18 6 7 mph 1019.6mb 59f
5:12 5 6 mph 1019.5mb 58f
5:06 5 6 mph 1019.5mb 58f
5:00 3 5 mph 1019.5mb 58f
4:54 2 5 mph 1019.5mb 58f
4:48 2 5 mph 1019.5mb 58f
4:42 3
mph
1019.6mb 58f
4:36 3 5 mph 1019.6mb 58f
4:30 3 5 mph 1019.6mb 58f
4:24 2 3 mph 1019.6mb 58f
4:18 2 5 mph 1019.7mb 58f
4:12  -  5 mph 1019.7mb 58f
4:06 3 5 mph 1019.6mb 58f
4:00 5 6 mph 1019.6mb 57f
3:54 3 5 mph 1019.5mb 57f
3:48 5
mph
1019.5mb 57f
3:42 3 6 mph 1019.5mb 57f
3:36 5 6 mph 1019.5mb 57f
3:30 5 6 mph 1019.4mb 57f
3:24 5 6 mph 1019.5mb 57f
3:18 3 6 mph 1019.5mb 57f
3:12 5
mph
1019.5mb 57f
3:06 3 5 mph 1019.5mb 56f
3:00 2 3 mph 1019.5mb 56f
2:54  -  2 mph 1019.5mb 56f
2:48  -  1 mph 1019.4mb 57f
2:42  -  2 mph 1019.4mb 57f
2:36  -  2 mph 1019.4mb 57f
2:30  -  5 mph 1019.4mb 57f
2:24 2 3 mph 1019.4mb 57f
2:18 2 3 mph 1019.4mb 57f
2:12  -  1 mph 1019.3mb 57f
2:06  -  2 mph 1019.3mb 57f
2:00  -  3 mph 1019.3mb 57f
1:54  -  2 mph 1019.3mb 57f
1:48  -  1 mph 1019.3mb 58f
1:42  -  3 mph 1019.3mb 58f
1:36 3 5 mph 1019.3mb 58f
1:30  -  2 mph 1019.3mb 58f
1:24  -  3 mph 1019.3mb 58f
1:18 2 5 mph 1019.3mb 58f
1:12 2 6 mph 1019.3mb 58f
1:06 3 5 mph 1019.3mb 58f
1:00 5 6 mph 1019.4mb 58f
12:54 3 5 mph 1019.4mb 58f
12:48 5 6 mph 1019.4mb 58f
12:42 3 7 mph 1019.4mb 59f
12:36 6 7 mph 1019.3mb 59f
12:30 6 7 mph 1019.2mb 59f
12:24 7 8 mph 1019.2mb 59f
12:18 7 10 mph 1019.2mb 59f
12:12 9 11 mph 1019.2mb 59f
12:06 8 11 mph 1019.2mb 59f
12:00 8 10 mph 1019.2mb 59f
Qua 08/27 11:54 8 9 mph 1019.2mb 59f
11:48 9 11 mph 1019.2mb 59f
11:42 8 9 mph 1019.2mb 59f
11:36 8 10 mph 1019.2mb 59f
11:30 6 7 mph 1019.2mb 59f
11:24 5 10 mph 1019.2mb 59f
11:18 7 9 mph 1019.2mb 60f
11:12 7 9 mph 1019.3mb 60f
11:06 8 9 mph 1019.3mb 60f
11:00 6 7 mph 1019.2mb 59f
10:54 6 7 mph 1019.2mb 60f
10:48 6 8 mph 1019.3mb 59f
10:42 6 8 mph 1019.4mb 59f
10:36 7 8 mph 1019.3mb 60f
10:30 6 7 mph 1019.4mb 59f
10:24 6 10 mph 1019.4mb 60f
10:18 9 14 mph 1019.3mb 60f
10:12 6 10 mph 1019.4mb 59f
10:06 7 11 mph 1019.4mb 59f
10:00 9 10 mph 1019.4mb 59f
9:54 8 10 mph 1019.4mb 59f
9:48 8 13 mph 1019.4mb 59f
9:42 8 9 mph 1019.4mb 59f
9:36 6 9 mph 1019.4mb 60f
9:30 8 11 mph 1019.4mb 59f
9:24 7 10 mph 1019.4mb 59f
9:18 7 9 mph 1019.4mb 59f
9:12 8 11 mph 1019.4mb 59f
9:06 6 9 mph 1019.4mb 59f
9:00 5 10 mph 1019.3mb 59f
8:54 7 9 mph 1019.3mb 59f
8:48 9 13 mph 1019.3mb 59f
8:42 7 10 mph 1019.3mb 59f
8:36 7 13 mph 1019.2mb 60f
8:30 10 14 mph 1019.1mb 60f
8:24 6 10 mph 1019.1mb 60f
8:18 9 10 mph 1019.1mb 60f
8:12 9 15 mph 1019mb 60f
8:06 11 14 mph 1019mb 60f
8:00 11 15 mph 1019mb 61f
7:54 11 16 mph 1019mb 61f
7:48 10 13 mph 1019mb 61f
7:42 10 16 mph 1019mb 61f
7:36 13 16 mph 1019mb 61f
7:30 13 17 mph 1019mb 61f
7:24 11 14 mph 1018.9mb 61f
7:18 10 15 mph 1019mb 61f
7:12 10 14 mph 1018.9mb 61f
7:06 13 17 mph 1018.9mb 61f
7:00 11 15 mph 1019mb 62f
6:54 11 18 mph 1019mb 62f
6:48 11 15 mph 1019mb 62f
6:42 13 15 mph 1019mb 62f
6:36 11 20 mph 1019.1mb 62f
6:30 11 16 mph 1019.1mb 62f
6:24 10 15 mph 1019.1mb 63f
6:18 13 17 mph 1019.1mb 63f
6:12 11 16 mph 1019.1mb 64f
6:06 13 16 mph 1019.1mb 64f
6:00 10 15 mph 1019.1mb 64f
5:54 14 17 mph 1019.1mb 64f
5:48 11 14 mph 1019.1mb 64f
5:42 13 18 mph 1019.1mb 64f
5:36 13 16 mph 1019.1mb 64f
5:30 13 16 mph 1019.1mb 64f
5:24 11 16 mph 1019mb 64f
5:18 13 16 mph 1019.1mb 64f
5:12 11 16 mph 1019.1mb 65f
5:06 11 15 mph 1019mb 65f
5:00 14 17 mph 1018.9mb 64f
4:54 11 18 mph 1019mb 64f
4:48 14 17 mph 1019mb 65f
4:42 13 15 mph 1019mb 64f
4:36 11 16 mph 1019.1mb 64f
4:30 13 17 mph 1019.1mb 64f
4:24 15 18 mph 1019.2mb 64f
4:18 14 17 mph 1019.1mb 64f
4:12 15 18 mph 1019.1mb 64f
4:06 14 18 mph 1019.1mb 64f
4:00 15 17 mph 1019.1mb 64f
3:54 14 18 mph 1019.1mb 63f
3:48 14 18 mph 1019.1mb 63f
3:42 15 20 mph 1019.1mb 64f
3:36 14 18 mph 1019.1mb 63f
3:30 14 17 mph 1019.1mb 62f
3:24 14 20 mph 1019.2mb 62f
3:18 15 18 mph 1019.2mb 62f
3:12 15 18 mph 1019.2mb 62f
3:06 13 15 mph 1019.2mb 62f
3:00 10 13 mph 1019.2mb 63f
2:54 5 15 mph 1019.2mb 63f
2:48 7 14 mph 1019.2mb 64f
2:42 6 13 mph 1019.2mb 64f
2:36 8 13 mph 1019.3mb 64f
2:30 13 15 mph 1019.3mb 63f
2:24 11 14 mph 1019.3mb 63f
2:18 8 11 mph 1019.3mb 63f
2:12 8 13 mph 1019.3mb 63f
2:06 9 11 mph 1019.4mb 62f
2:00 9 14 mph 1019.4mb 62f
1:54 8 11 mph 1019.4mb 62f
1:48 7 13 mph 1019.4mb 61f
1:42 9 11 mph 1019.4mb 62f
1:36 3 13 mph 1019.4mb 62f
1:30 9 11 mph 1019.4mb 61f
1:24 8 13 mph 1019.5mb 61f
1:18 11 13 mph 1019.5mb 60f
1:12 6 13 mph 1019.5mb 60f
1:06 10 14 mph 1019.6mb 60f
1:00 9 13 mph 1019.6mb 60f
12:54 10 13 mph 1019.6mb 60f
12:48 10 14 mph 1019.6mb 60f
12:42 8 15 mph 1019.5mb 60f
12:36 10 14 mph 1019.4mb 61f
12:30 11 14 mph 1019.4mb 61f
12:24 6 9 mph 1019.4mb 62f
12:18  -  2 mph 1019.4mb 62f
12:12 1 3 mph 1019.4mb 62f
12:06 1 3 mph 1019.4mb 62f
12:00 3 5 mph 1019.4mb 61f
11:54 5
mph
1019.4mb 61f
11:48 3 5 mph 1019.4mb 61f
11:42 5
mph
1019.4mb 61f
11:36  -  3 mph 1019.4mb 62f
11:30 3 5 mph 1019.4mb 61f
11:24 3 6 mph 1019.4mb 61f
11:18 5 7 mph 1019.3mb 61f
11:12 3 6 mph 1019.3mb 61f
11:06 3 5 mph 1019.3mb 60f
11:00 3 6 mph 1019.3mb 60f
10:54 6 7 mph 1019.4mb 60f
10:48 3 6 mph 1019.4mb 60f
10:42 6 7 mph 1019.4mb 60f
10:36 5 6 mph 1019.4mb 60f
10:30 2 5 mph 1019.3mb 59f
10:24 2 7 mph 1019.3mb 59f
10:18 3 6 mph 1019.2mb 59f
10:12 3 6 mph 1019.2mb 59f
10:06 5 6 mph 1019.2mb 59f
10:00 5 7 mph 1019.3mb 59f
9:54 5 6 mph 1019.3mb 59f
9:48 7 9 mph 1019.2mb 58f
9:42 8 10 mph 1019.2mb 58f
9:36 6 8 mph 1019.1mb 58f
9:30 3 6 mph 1019.1mb 58f
9:24 5 7 mph 1019.1mb 58f
9:18 5 7 mph 1019mb 58f
9:12 6 9 mph 1019mb 57f
9:06 8 11 mph 1019mb 57f
9:00 6 8 mph 1018.9mb 57f
8:54 7 8 mph 1018.9mb 57f
8:48 6
mph
1018.9mb 57f
8:42 6 7 mph 1018.9mb 57f
8:36 2 5 mph 1019mb 57f
8:30 5 6 mph 1018.9mb 57f
8:24 5 6 mph 1018.9mb 57f
8:18 6 7 mph 1018.8mb 57f
8:12 6 7 mph 1018.8mb 57f
8:06 5 6 mph 1018.7mb 57f
8:00 5 6 mph 1018.7mb 57f
7:54 3 5 mph 1018.6mb 57f
7:48 3 5 mph 1018.6mb 57f
7:42 3 5 mph 1018.5mb 57f
7:36 3 6 mph 1018.5mb 57f
7:30 5 7 mph 1018.5mb 57f
7:24 6 7 mph 1018.5mb 57f
7:18 6 7 mph 1018.5mb 57f
7:12 6 7 mph 1018.4mb 57f
7:06 3 6 mph 1018.4mb 57f
7:00 3 5 mph 1018.4mb 57f
6:54 5 6 mph 1018.3mb 57f
6:48 2 6 mph 1018.2mb 57f
6:42 5
mph
1018.2mb 57f
6:36 2 5 mph 1018.2mb 57f
6:30 5 6 mph 1018.1mb 57f
6:24 5 6 mph 1018mb 57f
6:18 5 6 mph 1018mb 57f
6:12 5 7 mph 1017.9mb 57f
6:06 6 8 mph 1017.9mb 57f
6:00 2 5 mph 1017.8mb 57f
5:54 1 3 mph 1017.8mb 57f
5:48 2 3 mph 1017.8mb 57f
5:42 2 3 mph 1017.8mb 57f
5:36  -  2 mph 1017.8mb 57f
5:30 1 3 mph 1017.8mb 57f
5:24 3 6 mph 1017.8mb 56f
5:18 2 3 mph 1017.7mb 57f
5:12 3 6 mph 1017.7mb 57f
5:06 3 5 mph 1017.8mb 57f
5:00 3 5 mph 1017.8mb 57f
4:54 3
mph
1017.8mb 56f
4:48 2 3 mph 1017.8mb 57f
4:42 2 5 mph 1017.7mb 56f
4:36 5
mph
1017.7mb 56f
4:30 5 6 mph 1017.8mb 56f
4:24 5 6 mph 1017.8mb 56f
4:18 6 7 mph 1017.8mb 56f
4:12 6
mph
1017.8mb 56f
4:06 5 6 mph 1017.8mb 57f
4:00 5 7 mph 1017.7mb 57f
3:54 6 7 mph 1017.7mb 57f
3:48 6 7 mph 1017.8mb 57f
3:42 3 5 mph 1017.8mb 56f
3:36 2 5 mph 1017.7mb 57f
3:30 3 5 mph 1017.7mb 57f
3:24 5 6 mph 1017.7mb 56f
3:18 5 6 mph 1017.7mb 57f
3:12 5 6 mph 1017.7mb 57f
3:06 6 8 mph 1017.7mb 57f
3:00 5 6 mph 1017.7mb 57f
2:54 5 7 mph 1017.7mb 57f
2:48 5 7 mph 1017.8mb 57f
2:42 6 7 mph 1017.7mb 57f
2:36 5 7 mph 1017.7mb 57f
2:30 5 7 mph 1017.7mb 57f
2:24 6 8 mph 1017.6mb 57f
2:18 3 6 mph 1017.6mb 57f
2:12 3 6 mph 1017.6mb 57f
2:06 2 3 mph 1017.6mb 57f
2:00 3
mph
1017.5mb 57f
1:54 1 2 mph 1017.5mb 57f
1:48  -  3 mph 1017.5mb 57f
1:42 2 5 mph 1017.4mb 57f
1:36 3 5 mph 1017.4mb 57f
1:30 3 6 mph 1017.3mb 57f
1:24 3 7 mph 1017.3mb 57f
1:18 3 8 mph 1017.4mb 57f
1:12 6 7 mph 1017.4mb 57f
1:06 7 8 mph 1017.4mb 57f
1:00 7 9 mph 1017.4mb 57f
12:54 6 7 mph 1017.4mb 57f
12:48 6 7 mph 1017.4mb 57f
12:42 5 9 mph 1017.3mb 57f
12:36 9 10 mph 1017.3mb 57f
12:30 9 10 mph 1017.3mb 57f
12:24 5 7 mph 1017.2mb 57f
12:18 6
mph
1017.3mb 57f
12:12 3 5 mph 1017.2mb 58f
12:06 1 2 mph 1017.2mb 58f
12:00  -  3 mph 1017.2mb 58f
Ter 08/26 11:54 2 3 mph 1017.2mb 58f
11:48 2 3 mph 1017.2mb 58f
11:42 1 2 mph 1017.2mb 58f
11:36  -  2 mph 1017.2mb 58f
11:30 1 3 mph 1017.3mb 58f
11:24 1 3 mph 1017.3mb 58f
11:18 3
mph
1017.3mb 58f
11:12 2 3 mph 1017.2mb 58f
11:06 2 3 mph 1017.2mb 58f
11:00 3 5 mph 1017.2mb 58f
10:54 5 6 mph 1017.2mb 58f
10:48 5 6 mph 1017.2mb 58f
10:42 3 6 mph 1017.2mb 58f
10:36 2 5 mph 1017.2mb 58f
10:30 3 7 mph 1017.3mb 58f
10:24 3 6 mph 1017.3mb 58f
10:18 5 6 mph 1017.4mb 58f
10:12 5 7 mph 1017.4mb 58f
10:06 6 7 mph 1017.4mb 58f
10:00 6 7 mph 1017.4mb 58f
9:54 6 7 mph 1017.4mb 58f
9:48 3 5 mph 1017.4mb 59f
9:42 5
mph
1017.4mb 58f
9:36 2 5 mph 1017.3mb 59f
9:30 3 6 mph 1017.4mb 59f
9:24 5 6 mph 1017.3mb 59f
9:18 5 6 mph 1017.2mb 59f
9:12 5 7 mph 1017.1mb 59f
9:06 6 7 mph 1017mb 59f
9:00 7 8 mph 1017mb 59f
8:54 5 7 mph 1017mb 59f
8:48 6 8 mph 1017.1mb 59f
8:42 8 10 mph 1017mb 59f
8:36 7 9 mph 1016.9mb 60f
8:30 7 11 mph 1017mb 60f
8:24 8 10 mph 1016.9mb 60f
8:18 8 9 mph 1016.9mb 60f
8:12 7 9 mph 1016.8mb 61f
8:06 5 8 mph 1016.8mb 61f
8:00 7 9 mph 1016.7mb 62f
7:54 5 9 mph 1016.7mb 62f
7:48 6 8 mph 1016.6mb 63f
7:42 6 7 mph 1016.6mb 63f
7:36 7 8 mph 1016.6mb 63f
7:30 7 9 mph 1016.6mb 64f
7:24 5 7 mph 1016.6mb 64f
7:18 6 8 mph 1016.6mb 64f
7:12 7 13 mph 1016.6mb 64f
7:06 10 11 mph 1016.7mb 64f
7:00 9 11 mph 1016.6mb 65f
6:54 8 13 mph 1016.7mb 65f
6:48 7 10 mph 1016.6mb 66f
6:42 9 11 mph 1016.6mb 66f
6:36 7 10 mph 1016.6mb 66f
6:30 7 11 mph 1016.5mb 66f
6:24 7 8 mph 1016.6mb 67f
6:18 9 13 mph 1016.7mb 67f
6:12 11 15 mph 1016.7mb 67f
6:06 9 14 mph 1016.7mb 67f
6:00 11 16 mph 1016.6mb 67f
5:54 10 13 mph 1016.5mb 67f
5:48 8 14 mph 1016.6mb 67f
5:42 10 14 mph 1016.6mb 66f
5:36 13 16 mph 1016.6mb 66f
5:30 14 16 mph 1016.7mb 66f
5:24 15 17 mph 1016.7mb 66f
5:18 15 20 mph 1016.7mb 66f
5:12 15 17 mph 1016.7mb 67f
5:06 15 17 mph 1016.8mb 66f
5:00 15 16 mph 1016.8mb 67f